Location: Newark
(46.7636°N, 1.8358°W)
Time: 09:38:32
(UTC+00:00)

OTV 5 (USA 277) - Visible Passes

Search period start: 22 October 2019 00:00
Search period end: 01 November 2019 00:00
Orbit: 310 x 324 km, 54.5° (Epoch: 17 October)

Date Brightness Start Highest point End Pass type
(mag) Time Alt. Az. Time Alt. Az. Time Alt. Az.
28 Oct ? 18:37:33 10° SSW 18:38:41 19° S 18:38:41 19° S visible
29 Oct ? 18:51:37 10° SW 18:53:10 29° SW 18:53:10 29° SW visible
30 Oct ? 17:32:57 10° S 17:34:49 17° SE 17:36:39 10° E visible
30 Oct ? 19:06:12 10° WSW 19:07:33 24° W 19:07:33 24° W visible
31 Oct ? 17:46:36 10° SSW 17:49:11 40° SE 17:50:56 17° ENE visible
31 Oct ? 19:21:08 10° W 19:21:50 15° WNW 19:21:50 15° WNW visible
